San Antonio Stinson, TX

9:19 AM CDT on July 28, 2017 (GMT -0500)
Stinson Municipal

Weather History for KSSF - February, 2014

Change the Weather History Date:

Thursday, February 20, 2014

  Actual Average Record
Temperature  
Mean Temperature 73 °F -  
Max Temperature 84 °F 66 °F 84 °F (2011)
Min Temperature 59 °F 46 °F 35 °F (2006)
Cooling Degree Days 8    
Growing Degree Days 23 (Base 50)    
Moisture  
Dew Point 54 °F    
Average Humidity 64    
Maximum Humidity 94    
Minimum Humidity 10    
Precipitation  
Precipitation 0.00 in - - ()
Sea Level Pressure  
Sea Level Pressure 29.80 in    
Wind  
Wind Speed 7 mph (ENE)    
Max Wind Speed 18 mph    
Max Gust Speed 30 mph    
Visibility 8 miles    
Events      
Averages and records for this station are not official NWS values.
T = Trace of Precipitation, MM = Missing Value Source: NWS Daily Summary

Daily Weather History Graph

Daily Weather History Graph

Search for Another Location

Airport or City:

Trip Planner

Search our weather history database for the weather conditions in past years. The results will help you decide how hot, cold, wet, or windy it might be!

Date:

Astronomy

Feb. 20, 2014 Rise Set
Actual Time 7:08 AM CST 6:27 PM CST
Civil Twilight 6:44 AM CST 6:51 PM CST
Nautical Twilight 6:16 AM CST 7:19 PM CST
Astronomical Twilight 5:48 AM CST 7:46 PM CST
Moon 11:53 PM CST (2/20) 10:19 AM CST (2/20)
Length of Visible Light 12h 07m
Length of Day
11h 18m
Waning Gibbous, 70% of the Moon is Illuminated
Feb 20
Waning Gibbous
Feb 22
Last Quarter
Mar 1
New
Mar 8
First Quarter
Mar 16
Full

Hourly Weather History & Observations

Time (CST) Temp. Heat Index Dew Point Humidity Pressure Visibility Wind Dir Wind Speed Gust Speed Precip Events Conditions
12:53 AM 64.0 °F - 62.1 °F 93% 29.73 in 10.0 mi SE 6.9 mph - N/A   Clear
1:43 AM 64.4 °F - 60.8 °F 88% 29.75 in 9.0 mi SE 6.9 mph - N/A   Scattered Clouds
1:53 AM 64.0 °F - 61.0 °F 90% 29.72 in 8.0 mi SE 6.9 mph - N/A   Mostly Cloudy
2:46 AM 64.4 °F - 62.6 °F 94% 29.74 in 7.0 mi SSE 6.9 mph - N/A   Overcast
2:53 AM 64.0 °F - 62.1 °F 93% 29.72 in 8.0 mi SSE 5.8 mph - N/A   Overcast
3:24 AM 64.4 °F - 62.6 °F 94% 29.74 in 8.0 mi SE 4.6 mph - N/A   Overcast
3:53 AM 66.0 °F - 63.0 °F 90% 29.70 in 8.0 mi SE 5.8 mph - N/A   Overcast
4:24 AM 66.2 °F - 62.6 °F 88% 29.73 in 8.0 mi SE 3.5 mph - N/A   Overcast
4:51 AM 66.2 °F - 62.6 °F 88% 29.73 in 7.0 mi SE 5.8 mph - N/A   Overcast
4:53 AM 66.0 °F - 63.0 °F 90% 29.70 in 7.0 mi SE 5.8 mph - N/A   Overcast
5:18 AM 64.4 °F - 62.6 °F 94% 29.73 in 6.0 mi SE 4.6 mph - N/A   Mostly Cloudy
5:53 AM 64.0 °F - 62.1 °F 93% 29.71 in 5.0 mi SE 5.8 mph - N/A   Scattered Clouds
6:40 AM 64.4 °F - 62.6 °F 94% 29.74 in 5.0 mi SSE 8.1 mph - N/A   Mostly Cloudy
6:53 AM 66.0 °F - 64.0 °F 93% 29.72 in 5.0 mi SSE 9.2 mph - N/A   Overcast
7:53 AM 68.0 °F - 64.9 °F 90% 29.74 in 4.0 mi Calm Calm - N/A   Overcast
8:10 AM 68.0 °F - 64.4 °F 88% 29.77 in 5.0 mi Calm Calm - N/A   Overcast
8:53 AM 70.0 °F - 64.9 °F 84% 29.78 in 6.0 mi Calm Calm - N/A   Haze
9:53 AM 72.0 °F - 64.9 °F 78% 29.79 in 7.0 mi Calm Calm - N/A   Overcast
10:53 AM 73.9 °F - 64.9 °F 73% 29.81 in 8.0 mi NW 4.6 mph - N/A   Overcast
11:17 AM 75.2 °F - 64.4 °F 69% 29.82 in 8.0 mi West 6.9 mph - N/A   Mostly Cloudy
11:40 AM 77.0 °F - 64.4 °F 65% 29.82 in 8.0 mi WSW 5.8 mph - N/A   Mostly Cloudy
11:53 AM 78.1 °F - 63.0 °F 60% 29.80 in 7.0 mi West 5.8 mph - N/A   Mostly Cloudy
12:16 PM 77.0 °F - 62.6 °F 61% 29.82 in 8.0 mi NW 5.8 mph - N/A   Mostly Cloudy
12:24 PM 78.8 °F - 62.6 °F 57% 29.82 in 8.0 mi NNW 9.2 mph - N/A   Scattered Clouds
12:53 PM 80.1 °F 81.1 °F 61.0 °F 52% 29.79 in 8.0 mi North 12.7 mph 16.1 mph N/A   Mostly Cloudy
1:53 PM 84.9 °F 83.7 °F 55.9 °F 37% 29.77 in 10.0 mi North 13.8 mph 20.7 mph N/A   Partly Cloudy
2:53 PM 84.9 °F - 51.1 °F 31% 29.76 in 10.0 mi North 16.1 mph 26.5 mph N/A   Clear
3:53 PM 84.0 °F - 39.0 °F 20% 29.79 in 10.0 mi NNE 15.0 mph 20.7 mph N/A   Clear
4:53 PM 84.9 °F - 23.0 °F 10% 29.81 in 10.0 mi North 16.1 mph 25.3 mph N/A   Clear
5:53 PM 81.0 °F - 23.0 °F 12% 29.85 in 10.0 mi North 18.4 mph 29.9 mph N/A   Clear
6:53 PM 75.0 °F - 25.0 °F 16% 29.90 in 10.0 mi North 8.1 mph 17.3 mph N/A   Clear
7:53 PM 72.0 °F - 27.0 °F 19% 29.95 in 10.0 mi NNE 9.2 mph 20.7 mph N/A   Clear
8:53 PM 69.1 °F - 27.0 °F 21% 29.98 in 10.0 mi NNE 13.8 mph 21.9 mph N/A   Clear
9:53 PM 66.0 °F - 28.9 °F 25% 30.01 in 10.0 mi NNE 13.8 mph 23.0 mph N/A   Clear
10:53 PM 62.1 °F - 28.9 °F 29% 30.05 in 10.0 mi NNE 10.4 mph - N/A   Clear
11:53 PM 59.0 °F - 28.9 °F 32% 30.06 in 10.0 mi NNE 8.1 mph - N/A   Clear